[[{"header":{"parameterUnit":"m.s-1","parameterCategory":1,"la1":30.2991,"la2":30.254,"lo1":-89.0895,"lo2":-89.0444,"dy":0.0017,"dx":0.0017,"nx":28,"ny":28,"refTime":"2025-01-29T03:00:00:Z","depth":0,"parameterNumber":2,"parameterNumberName":"U-component_of_WINDS"},"data":[0,0,0,0,0,0,0,0,0,0,0,0,0,0,0,0,0,0,0,0,0,0,0,0,0,0,0,0,0,0,0,0,0,0,0,0,0,0,0,0,0,0,0,0,0,0,0,0,0,0,0,0,0,0,0,0,0,0,-3.7902,-3.7903,0,-3.8004,-3.8005,-3.8007,-3.8027,-3.8027,-3.8026,-3.8025,-3.8128,-3.8131,-3.8135,0,0,0,0,0,0,0,0,0,0,0,0,0,-3.7724,-3.7728,-3.7902,-3.7903,-3.7905,-3.8004,-3.8006,-3.8007,-3.8028,-3.8027,-3.8026,-3.8025,-3.8127,-3.8131,-3.8135,0,0,0,0,0,0,0,0,0,0,0,0,0,-3.7811,-3.7729,-3.7902,-3.7927,-3.793,-3.8004,-3.8006,-3.8007,-3.8028,-3.8027,-3.8025,-3.8024,-3.8125,-3.813,-3.8136,-3.8191,0,0,-3.8151,-3.8154,0,0,0,0,0,0,0,0,-3.7807,-3.7818,-3.7922,-3.7925,-3.7929,-3.8002,-3.7981,-3.8069,-3.8028,-3.7991,-3.8025,-3.8024,-3.8087,-3.8095,-3.8117,-3.8195,-3.82,-3.8152,-3.8155,-3.8157,-3.8159,0,0,0,0,0,0,0,-3.78,-3.7814,-3.7943,-3.7924,-3.7928,-3.7933,-3.7944,-3.7997,-3.8044,-3.7994,-3.7996,-3.8008,-3.8089,-3.8112,-3.8119,-3.8201,-3.8152,-3.8156,-3.8159,-3.8161,-3.8331,-3.8333,0,0,0,0,0,0,-3.779,-3.7809,-3.7939,-3.7946,-3.7864,-3.7937,-3.795,-3.798,-3.8043,-3.8052,-3.8008,-3.8008,-3.8103,-3.8113,-3.8123,-3.8192,-3.8157,-3.8162,-3.8165,-3.833,-3.8332,-3.8333,0,0,0,0,0,0,-3.7786,-3.7802,-3.7935,-3.7878,-3.7895,-3.7942,-3.7975,-3.7982,-3.8006,-3.8055,-3.8063,-3.8024,-3.8103,-3.8116,-3.8174,-3.8195,-3.8164,-3.8169,-3.8328,-3.833,-3.8332,-3.8329,0,0,0,0,0,0,-3.7781,-3.78,-3.7821,-3.7878,-3.7898,-3.7984,-3.7977,-3.7985,-3.8015,-3.8015,-3.8071,-3.8079,-3.8103,-3.8166,-3.8179,-3.8202,-3.8173,-3.8327,-3.8329,-3.8332,-3.8327,-3.8331,-3.8334,0,0,0,0,0,-3.7775,-3.7816,-3.7822,-3.7838,-3.7926,-3.7986,-3.7997,-3.8024,-3.8016,-3.8038,-3.807,-3.8077,-3.8192,-3.8172,-3.8187,-3.8211,-3.8325,-3.8328,-3.8332,-3.8326,-3.833,-3.8334,0,0,0,0,0,0,-3.7759,-3.7824,-3.7832,-3.7892,-3.7934,-3.7989,-3.8017,-3.8028,-3.8071,-3.807,-3.8102,-3.8114,-3.8171,-3.8197,-3.8174,-3.8269,-3.8258,-3.8264,-3.8249,-3.8253,-3.8256,-3.8248,-3.8177,0,0,0,0,0,-3.7763,-3.7807,-3.7861,-3.7909,-3.793,-3.797,-3.7997,-3.8015,-3.8058,-3.8076,-3.8112,-3.8153,-3.8199,-3.8228,-3.8272,-3.8332,-3.8345,-3.8357,-3.836,-3.8362,-3.8367,-3.8401,-3.8407,-3.8344,-3.8344,-3.8343,0,0,-3.7771,-3.7812,-3.7837,-3.7907,-3.7941,-3.7985,-3.7984,-3.8031,-3.8064,-3.8083,-3.814,-3.8168,-3.8217,-3.8276,-3.8304,-3.83,-3.8387,-3.8366,-3.8368,-3.8371,-3.8405,-3.8411,-3.8416,-3.8346,-3.8345,-3.8345,0,0,-3.7808,-3.7844,-3.7888,-3.7923,-3.7975,-3.8002,-3.8012,-3.8067,-3.8086,-3.8145,-3.816,-3.82,-3.8277,-3.8312,-3.8339,-3.8392,-3.84,-3.8406,-3.8421,-3.8454,-3.8459,-3.8463,-3.8481,-3.8487,-3.841,-3.841,-3.841,0,-3.7811,-3.7879,-3.7909,-3.7956,-3.7986,-3.8007,-3.8052,-3.8084,-3.8147,-3.8167,-3.8163,-3.8261,-3.8295,-3.8363,-3.8376,-3.8398,-3.8411,-3.8398,-3.8456,-3.8461,-3.8465,-3.8483,-3.8489,-3.841,-3.841,-3.841,-3.841,0,-3.788,-3.7927,-3.7956,-3.8018,-3.8052,-3.8097,-3.8135,-3.8166,-3.8181,-3.8209,-3.8268,-3.8311,-3.8364,-3.8382,-3.8397,-3.8453,-3.8448,-3.8449,-3.8439,-3.8471,-3.8488,-3.8495,-3.8411,-3.8411,-3.8411,-3.8411,0,0,-3.7907,-3.7987,-3.7997,-3.8026,-3.8086,-3.8122,-3.8169,-3.8223,-3.8248,-3.8292,-3.8332,-3.8398,-3.84,-3.8431,-3.8451,-3.848,-3.8519,-3.8478,-3.8479,-3.8483,-3.8582,-3.8579,-3.8587,-3.8526,-3.8527,-3.8528,-3.8577,0,-3.795,-3.8035,-3.8064,-3.8134,-3.8177,-3.8199,-3.824,-3.8281,-3.8309,-3.835,-3.838,-3.8427,-3.8426,-3.8445,-3.8475,-3.8507,-3.8539,-3.8505,-3.8562,-3.8564,-3.8547,-3.8596,-3.8593,-3.8637,-3.8584,-3.8585,-3.8586,0,-3.8011,-3.8057,-3.8131,-3.8186,-3.8206,-3.8242,-3.8294,-3.8333,-3.838,-3.8399,-3.8435,-3.8453,-3.8503,-3.8492,-3.8561,-3.8537,-3.8563,-3.8583,-3.8585,-3.859,-3.8575,-3.86,-3.8652,-3.8658,-3.8597,-3.8596,-3.8595,0,-3.8022,-3.8102,-3.8157,-3.8181,-3.8248,-3.8273,-3.8301,-3.8348,-3.8379,-3.8424,-3.8444,-3.8495,-3.8522,-3.8561,-3.8593,-3.8582,-3.8659,-3.865,-3.8675,-3.8674,-3.8688,-3.8687,-3.8743,-3.8708,-3.8708,-3.8708,-3.8708,0,-3.8066,-3.811,-3.8163,-3.8196,-3.8247,-3.8282,-3.833,-3.8361,-3.8402,-3.8442,-3.8464,-3.8501,-3.8541,-3.8583,-3.8609,-3.8662,-3.8675,-3.869,-3.8696,-3.8687,-3.8685,-3.8703,-3.87,-3.871,-3.8709,-3.8709,-3.8708,0,-3.8086,-3.8123,-3.8184,-3.8243,-3.8259,-3.8293,-3.8344,-3.8377,-3.8407,-3.8457,-3.847,-3.8517,-3.8568,-3.8604,-3.8669,-3.8686,-3.8743,-3.875,-3.8727,-3.873,-3.8752,-3.8749,-3.882,-3.8831,-3.879,-3.879,-3.879,0,-3.811,-3.8145,-3.8208,-3.8237,-3.8266,-3.8311,-3.8343,-3.8379,-3.8411,-3.8469,-3.8496,-3.8549,-3.8592,-3.8673,-3.8712,-3.8762,-3.8769,-3.8791,-3.8777,-3.8767,-3.8768,-3.8765,-3.8768,-3.8792,-3.8793,-3.8793,-3.8793,0,-3.815,-3.8167,-3.8212,-3.8264,-3.8302,-3.8345,-3.8387,-3.841,-3.8453,-3.8488,-3.8541,-3.8575,-3.8643,-3.8695,-3.875,-3.8779,-3.8793,-3.8798,-3.8806,-3.8796,-3.8781,-3.8789,-3.8731,-3.8795,-3.8795,-3.8795,-3.8795,-3.8795,-3.8172,-3.8204,-3.8254,-3.8303,-3.834,-3.838,-3.8414,-3.8449,-3.8494,-3.8552,-3.8571,-3.8625,-3.8674,-3.8749,-3.8779,-3.8823,-3.8821,-3.8833,-3.8836,-3.8838,-3.8837,-3.8776,-3.8833,-3.8833,-3.8833,-3.8833,-3.8833,0,-3.8211,-3.8245,-3.8291,-3.8351,-3.839,-3.8402,-3.845,-3.8482,-3.853,-3.8574,-3.8617,-3.8678,-3.873,-3.8774,-3.8827,-3.8853,-3.8861,-3.8866,-3.8863,-3.887,-3.8836,-3.8823,-3.8858,-3.8858,-3.8858,-3.8858,-3.8858,-3.8858,-3.8236,-3.8291,-3.8315,-3.8388,-3.8421,-3.8475,-3.8502,-3.8539,-3.8575,-3.8642,-3.8685,-3.8714,-3.8758,-3.8815,-3.8862,-3.8874,-3.8892,-3.8895,-3.8908,-3.8875,-3.8872,-3.8869,-3.8857,-3.8899,-3.8899,-3.8938,-3.8938,-3.8939]},{"header":{"parameterUnit":"m.s-1","parameterCategory":1,"la1":30.2991,"la2":30.254,"lo1":-89.0895,"lo2":-89.0444,"dy":0.0017,"dx":0.0017,"nx":28,"ny":28,"refTime":"2025-01-29T03:00:00:Z","depth":0,"parameterNumber":3,"parameterNumberName":"V-component_of_WINDS"},"data":[0,0,0,0,0,0,0,0,0,0,0,0,0,0,0,0,0,0,0,0,0,0,0,0,0,0,0,0,0,0,0,0,0,0,0,0,0,0,0,0,0,0,0,0,0,0,0,0,0,0,0,0,0,0,0,0,0,0,3.9195,3.9195,0,3.9198,3.9198,3.9198,3.9186,3.9185,3.9185,3.9185,3.9186,3.9186,3.9186,0,0,0,0,0,0,0,0,0,0,0,0,0,3.9177,3.9177,3.9195,3.9195,3.9195,3.9198,3.9198,3.9198,3.9186,3.9185,3.9185,3.9185,3.9186,3.9186,3.9186,0,0,0,0,0,0,0,0,0,0,0,0,0,3.9183,3.9177,3.9195,3.9189,3.9189,3.9198,3.9198,3.9198,3.9186,3.9185,3.9185,3.9184,3.9185,3.9186,3.9186,3.9201,0,0,3.9188,3.9188,0,0,0,0,0,0,0,0,3.9183,3.9184,3.919,3.919,3.9189,3.9191,3.9192,3.9199,3.9186,3.9187,3.9185,3.9184,3.9188,3.9188,3.919,3.9201,3.9201,3.9188,3.9189,3.9189,3.9189,0,0,0,0,0,0,0,3.9182,3.9183,3.9196,3.919,3.9189,3.9186,3.9187,3.9194,3.919,3.9187,3.9186,3.9187,3.9187,3.9189,3.919,3.9201,3.9188,3.9189,3.9189,3.9189,3.9227,3.9228,0,0,0,0,0,0,3.9183,3.9183,3.9196,3.9196,3.9184,3.9187,3.9187,3.9191,3.919,3.919,3.9187,3.9186,3.9189,3.9189,3.919,3.9209,3.9189,3.9189,3.919,3.9226,3.9227,3.9228,0,0,0,0,0,0,3.9182,3.9184,3.9196,3.9189,3.9191,3.9188,3.9192,3.9191,3.9193,3.919,3.919,3.919,3.9188,3.9189,3.9199,3.9209,3.919,3.919,3.9226,3.9227,3.9228,3.9246,0,0,0,0,0,0,3.9182,3.9184,3.9189,3.919,3.9191,3.9205,3.9193,3.9192,3.9195,3.9193,3.9193,3.9192,3.9188,3.9198,3.92,3.9209,3.919,3.9225,3.9226,3.9227,3.9244,3.9247,3.925,0,0,0,0,0,3.9181,3.9193,3.919,3.9191,3.9198,3.9206,3.9207,3.9202,3.9195,3.9201,3.92,3.9192,3.9207,3.9199,3.9201,3.921,3.9224,3.9226,3.9227,3.9243,3.9247,3.925,0,0,0,0,0,0,3.9192,3.9193,3.9189,3.9201,3.9204,3.9204,3.921,3.9206,3.9209,3.9208,3.9202,3.9202,3.9213,3.9213,3.9204,3.9226,3.9214,3.9216,3.9226,3.9229,3.9232,3.9232,3.9191,0,0,0,0,0,3.9196,3.9203,3.9203,3.9213,3.9215,3.9213,3.9216,3.9213,3.9215,3.9215,3.9215,3.9216,3.9222,3.9225,3.923,3.9244,3.9245,3.9251,3.9254,3.9256,3.9258,3.9268,3.9272,3.9233,3.9233,3.9233,0,0,3.9203,3.9205,3.9209,3.9216,3.9217,3.9225,3.9214,3.9221,3.9227,3.9216,3.9227,3.9226,3.9228,3.9241,3.9247,3.9241,3.9269,3.9258,3.926,3.9261,3.927,3.9274,3.9277,3.9234,3.9234,3.9234,0,0,3.9222,3.9223,3.9233,3.9236,3.924,3.9238,3.9241,3.9242,3.9242,3.9253,3.9246,3.9253,3.9261,3.9264,3.9266,3.9289,3.9283,3.929,3.9305,3.9315,3.9318,3.9321,3.9331,3.9335,3.9292,3.9292,3.9292,0,3.9231,3.9242,3.9239,3.9249,3.9252,3.9245,3.9256,3.9258,3.9263,3.9266,3.9259,3.9273,3.9273,3.9288,3.9294,3.9295,3.9299,3.9291,3.9318,3.9321,3.9323,3.9333,3.9337,3.9293,3.9293,3.9293,3.9293,0,3.9254,3.9263,3.9271,3.9278,3.9282,3.9292,3.9291,3.9296,3.9293,3.9293,3.9305,3.9306,3.9312,3.9315,3.9311,3.933,3.9327,3.9319,3.9308,3.9328,3.9337,3.9341,3.9295,3.9294,3.9294,3.9294,0,0,3.9278,3.9285,3.9288,3.9293,3.9297,3.9304,3.9314,3.9322,3.9327,3.9331,3.934,3.935,3.9344,3.9347,3.9343,3.9352,3.9373,3.9344,3.9344,3.9351,3.9397,3.9404,3.9408,3.9369,3.937,3.937,3.9398,0,3.9297,3.9317,3.9316,3.9334,3.9343,3.9337,3.9347,3.9351,3.9352,3.9359,3.936,3.9367,3.9358,3.936,3.9368,3.9369,3.9383,3.9367,3.9379,3.9379,3.938,3.9412,3.9419,3.9444,3.9401,3.9401,3.9402,0,3.9322,3.933,3.935,3.9357,3.936,3.9369,3.9377,3.9384,3.939,3.939,3.9395,3.9391,3.9402,3.9391,3.9407,3.9397,3.9402,3.9403,3.9404,3.9406,3.9393,3.9417,3.9452,3.9457,3.9407,3.9407,3.9406,0,3.934,3.9355,3.937,3.9373,3.938,3.9387,3.939,3.9395,3.9401,3.9408,3.9412,3.942,3.9424,3.9431,3.9429,3.942,3.9447,3.9435,3.9448,3.9449,3.9455,3.9455,3.9493,3.9455,3.9455,3.9455,3.9455,0,3.9363,3.9376,3.9378,3.9387,3.9402,3.9401,3.9416,3.9418,3.9423,3.9433,3.9428,3.9437,3.9434,3.9444,3.9443,3.9458,3.9459,3.9461,3.946,3.9462,3.9462,3.9466,3.9465,3.9456,3.9456,3.9456,3.9456,0,3.9385,3.9387,3.9403,3.941,3.9412,3.9423,3.9429,3.9438,3.9439,3.9452,3.9455,3.9457,3.9468,3.9468,3.9479,3.9479,3.9499,3.9495,3.9497,3.9497,3.9512,3.9511,3.9555,3.9562,3.9519,3.9519,3.9519,0,3.94,3.941,3.9419,3.9426,3.9431,3.9442,3.9449,3.9448,3.9456,3.9465,3.9473,3.9484,3.9493,3.9512,3.9514,3.9524,3.9522,3.9537,3.9523,3.9525,3.9524,3.9525,3.9527,3.9539,3.954,3.954,3.9541,0,3.9426,3.9428,3.9438,3.945,3.9459,3.9468,3.9476,3.9482,3.9483,3.9492,3.9504,3.9511,3.9526,3.9537,3.9548,3.9551,3.9547,3.9545,3.9549,3.9551,3.9553,3.9555,3.9507,3.9544,3.9544,3.9543,3.9543,3.9543,3.9446,3.9457,3.9466,3.9479,3.9485,3.9494,3.9504,3.9508,3.9519,3.9532,3.9531,3.9546,3.9553,3.9567,3.9571,3.9583,3.9578,3.9583,3.9585,3.9586,3.9589,3.9551,3.9585,3.9584,3.9584,3.9584,3.9584,0,3.9475,3.9481,3.9493,3.9506,3.9517,3.9514,3.9524,3.9533,3.9546,3.9554,3.9565,3.9581,3.9593,3.9597,3.961,3.9618,3.9617,3.9622,3.9622,3.9623,3.9592,3.9589,3.9623,3.9623,3.9623,3.9623,3.9623,3.9623,3.9491,3.9509,3.9512,3.9534,3.9541,3.9556,3.9563,3.9571,3.9578,3.9597,3.9608,3.9612,3.9619,3.9633,3.9644,3.9645,3.9651,3.9657,3.9657,3.9629,3.9625,3.9621,3.9618,3.9658,3.9658,3.9688,3.9688,3.9688]}]]